Back to catalog

STARLINK-4405

AliveCommunicationsSSO
NORAD 53201·PAYLOAD·🇺🇸 United States

Launched Jul 22, 2022 from Vandenberg Space Force Base

Loading…

Next Passes (next 24 hours)

TLE

FreshSource: CelesTrak SupGP

Epoch: Sep 15, 2026, 02:03 UTC

1 53201C 22084N   26258.08590278  .00286940  00000+0  74356-2 0  2582
2 53201  97.4964 323.6294 0001603  85.3673 340.6473 15.38934596    14

Track STARLINK-4405 in real time with AllMySat

Download on the App Store